| time (UTC) | temp F | wind direction | speed MPH | gust MPH | rain 1hr in | rain 24hr in | rain mn in | humidity % | barometer mb |
| 20260508091003 | 64 | 21 | 1.0 | 4.0 | 0.00 | 0.00 | 0.00 | 77 | 1014.8 |
| 20260508090503 | 64 | 4 | 1.0 | 5.0 | 0.00 | 0.00 | 0.00 | 77 | 1014.8 |
| 20260508090004 | 64 | 13 | 2.0 | 5.0 | 0.00 | 0.00 | 0.00 | 76 | 1014.7 |
| 20260508085525 | 64 | 18 | 2.0 | 5.0 | 0.00 | 0.00 | 0.00 | 76 | 1014.5 |
| 20260508085004 | 64 | 37 | 2.0 | 4.0 | 0.00 | 0.00 | 0.00 | 76 | 1014.1 |
| 20260508084525 | 64 | 59 | 3.0 | 5.0 | 0.00 | 0.00 | 0.00 | 76 | 1013.9 |
| 20260508084004 | 64 | 66 | 2.0 | 5.0 | 0.00 | 0.00 | 0.00 | 76 | 1013.8 |
| 20260508083504 | 64 | 56 | 3.0 | 9.0 | 0.00 | 0.00 | 0.00 | 77 | 1013.8 |
| 20260508083004 | 64 | 41 | 3.0 | 9.0 | 0.00 | 0.00 | 0.00 | 76 | 1013.5 |
| 20260508082504 | 64 | 21 | 2.0 | 5.0 | 0.00 | 0.00 | 0.00 | 76 | 1014.2 |
| 20260508082004 | 64 | 15 | 2.0 | 5.0 | 0.00 | 0.00 | 0.00 | 76 | 1014.5 |
| 20260508081504 | 64 | 14 | 2.0 | 5.0 | 0.00 | 0.00 | 0.00 | 77 | 1014.4 |
| 20260508081025 | 64 | 14 | 2.0 | 5.0 | 0.00 | 0.00 | 0.00 | 77 | 1014.4 |
| 20260508080504 | 64 | 10 | 2.0 | 5.0 | 0.00 | 0.00 | 0.00 | 77 | 1014.5 |
| 20260508080004 | 64 | 13 | 2.0 | 5.0 | 0.00 | 0.00 | 0.00 | 77 | 1014.6 |
| 20260508075525 | 64 | 15 | 1.0 | 5.0 | 0.00 | 0.00 | 0.00 | 77 | 1014.7 |
| 20260508075025 | 64 | 360 | 1.0 | 4.0 | 0.00 | 0.00 | 0.00 | 77 | 1014.7 |
| 20260508074504 | 64 | 16 | 1.0 | 4.0 | 0.00 | 0.00 | 0.00 | 77 | 1014.9 |
| 20260508074004 | 64 | 14 | 1.0 | 6.0 | 0.00 | 0.00 | 0.00 | 77 | 1014.9 |
| 20260508073504 | 64 | 15 | 3.0 | 6.0 | 0.00 | 0.00 | 0.00 | 77 | 1014.7 |
| 20260508073004 | 64 | 32 | 2.0 | 6.0 | 0.00 | 0.00 | 0.00 | 76 | 1014.6 |
| 20260508072504 | 64 | 38 | 2.0 | 6.0 | 0.00 | 0.00 | 0.00 | 76 | 1014.5 |
| 20260508072025 | 64 | 23 | 2.0 | 8.0 | 0.00 | 0.00 | 0.00 | 76 | 1014.6 |
| 20260508071504 | 64 | 29 | 3.0 | 8.0 | 0.00 | 0.00 | 0.00 | 76 | 1014.8 |
| 20260508071003 | 64 | 20 | 2.0 | 6.0 | 0.00 | 0.00 | 0.00 | 76 | 1014.7 |
| 20260508070525 | 64 | 11 | 2.0 | 6.0 | 0.00 | 0.00 | 0.00 | 76 | 1014.9 |
| 20260508070004 | 64 | 44 | 2.0 | 5.0 | 0.00 | 0.00 | 0.00 | 76 | 1014.8 |
| 20260508065504 | 64 | 63 | 1.0 | 5.0 | 0.00 | 0.00 | 0.00 | 76 | 1014.5 |
| 20260508065025 | 64 | 23 | 1.0 | 4.0 | 0.00 | 0.00 | 0.00 | 76 | 1014.9 |
| 20260508064504 | 64 | 49 | 2.0 | 7.0 | 0.00 | 0.00 | 0.00 | 76 | 1014.7 |
| 20260508064004 | 64 | 61 | 4.0 | 8.0 | 0.00 | 0.00 | 0.00 | 76 | 1014.2 |
| 20260508063503 | 64 | 57 | 4.0 | 8.0 | 0.00 | 0.00 | 0.00 | 76 | 1013.9 |
| 20260508063003 | 64 | 58 | 3.0 | 8.0 | 0.00 | 0.00 | 0.00 | 76 | 1014.1 |
| 20260508062504 | 64 | 65 | 3.0 | 7.0 | 0.00 | 0.00 | 0.00 | 76 | 1014.4 |
| 20260508062004 | 64 | 66 | 2.0 | 6.0 | 0.00 | 0.00 | 0.00 | 76 | 1014.6 |
| 20260508061524 | 64 | 57 | 2.0 | 6.0 | 0.00 | 0.00 | 0.00 | 76 | 1014.9 |
| 20260508061025 | 64 | 42 | 1.0 | 4.0 | 0.00 | 0.00 | 0.00 | 77 | 1015.2 |
| 20260508060504 | 64 | 57 | 2.0 | 5.0 | 0.00 | 0.00 | 0.00 | 77 | 1015.3 |
| 20260508060004 | 64 | 58 | 1.0 | 5.0 | 0.00 | 0.00 | 0.00 | 77 | 1015.7 |
| 20260508055504 | 64 | 342 | 0.0 | 2.0 | 0.00 | 0.00 | 0.00 | 77 | 1016.0 |
| 20260508055004 | 64 | 40 | 0.0 | 2.0 | 0.00 | 0.00 | 0.00 | 77 | 1016.5 |
| 20260508054503 | 64 | 334 | 0.0 | 3.0 | 0.00 | 0.00 | 0.00 | 77 | 1016.2 |
| 20260508054004 | 64 | 10 | 1.0 | 3.0 | 0.00 | 0.00 | 0.00 | 77 | 1016.1 |
| 20260508053504 | 64 | 18 | 1.0 | 4.0 | 0.00 | 0.00 | 0.00 | 77 | 1016.1 |
| 20260508053003 | 64 | 8 | 1.0 | 4.0 | 0.00 | 0.00 | 0.00 | 77 | 1015.9 |
| 20260508052504 | 64 | 327 | 1.0 | 4.0 | 0.00 | 0.00 | 0.00 | 76 | 1016.1 |
| 20260508052003 | 64 | 334 | 1.0 | 5.0 | 0.00 | 0.00 | 0.00 | 76 | 1016.3 |
| 20260508051504 | 64 | 8 | 2.0 | 5.0 | 0.00 | 0.00 | 0.00 | 76 | 1015.9 |
| 20260508051004 | 64 | 38 | 2.0 | 6.0 | 0.00 | 0.00 | 0.00 | 76 | 1015.2 |
| 20260508050525 | 64 | 50 | 2.0 | 6.0 | 0.00 | 0.00 | 0.00 | 76 | 1014.8 |
| 20260508050004 | 64 | 44 | 2.0 | 7.0 | 0.00 | 0.00 | 0.00 | 77 | 1014.5 |
| 20260508045504 | 63 | 59 | 3.0 | 8.0 | 0.00 | 0.00 | 0.00 | 77 | 1014.4 |
| 20260508045004 | 63 | 73 | 4.0 | 10.0 | 0.00 | 0.00 | 0.00 | 76 | 1014.1 |
| 20260508044504 | 63 | 69 | 3.0 | 10.0 | 0.00 | 0.00 | 0.00 | 76 | 1014.2 |
| 20260508044003 | 64 | 60 | 3.0 | 9.0 | 0.00 | 0.00 | 0.00 | 76 | 1014.3 |
| 20260508043503 | 64 | 53 | 2.0 | 7.0 | 0.00 | 0.00 | 0.00 | 76 | 1014.3 |
| 20260508043004 | 64 | 44 | 2.0 | 5.0 | 0.00 | 0.00 | 0.00 | 76 | 1014.4 |
| 20260508042504 | 64 | 41 | 3.0 | 7.0 | 0.00 | 0.00 | 0.00 | 76 | 1014.6 |
| 20260508042004 | 64 | 41 | 2.0 | 8.0 | 0.00 | 0.00 | 0.00 | 75 | 1014.8 |
| 20260508041504 | 64 | 46 | 2.0 | 8.0 | 0.00 | 0.00 | 0.00 | 75 | 1015.1 |
| 20260508041025 | 64 | 48 | 2.0 | 7.0 | 0.00 | 0.00 | 0.00 | 75 | 1015.1 |
| 20260508040503 | 64 | 39 | 3.0 | 7.0 | 0.00 | 0.00 | 0.00 | 75 | 1014.9 |
| 20260508040004 | 64 | 32 | 2.0 | 7.0 | 0.00 | 0.00 | 0.00 | 74 | 1015.1 |
| 20260508035504 | 64 | 18 | 2.0 | 5.0 | 0.00 | 0.00 | 0.00 | 75 | 1015.3 |
| 20260508035025 | 64 | 12 | 3.0 | 8.0 | 0.00 | 0.00 | 0.00 | 75 | 1015.6 |
| 20260508034525 | 64 | 16 | 2.0 | 8.0 | 0.00 | 0.00 | 0.00 | 75 | 1015.5 |
| 20260508034004 | 64 | 18 | 2.0 | 6.0 | 0.00 | 0.00 | 0.00 | 76 | 1015.5 |
| 20260508033503 | 64 | 12 | 2.0 | 7.0 | 0.00 | 0.00 | 0.00 | 76 | 1015.6 |
| 20260508033003 | 64 | 2 | 2.0 | 7.0 | 0.00 | 0.00 | 0.00 | 76 | 1015.7 |
| 20260508032504 | 64 | 357 | 1.0 | 7.0 | 0.00 | 0.00 | 0.00 | 76 | 1015.8 |
| 20260508032004 | 64 | 2 | 1.0 | 4.0 | 0.00 | 0.00 | 0.00 | 76 | 1015.8 |
| 20260508031504 | 64 | 4 | 1.0 | 4.0 | 0.00 | 0.00 | 0.00 | 76 | 1015.6 |
| 20260508031004 | 64 | 11 | 0.0 | 3.0 | 0.00 | 0.00 | 0.00 | 76 | 1015.7 |
| 20260508030504 | 65 | 18 | 1.0 | 4.0 | 0.00 | 0.00 | 0.00 | 75 | 1015.6 |
| 20260508030005 | 65 | 1 | 2.0 | 5.0 | 0.00 | 0.00 | 0.00 | 75 | 1015.3 |
| 20260508025503 | 65 | 3 | 2.0 | 5.0 | 0.00 | 0.00 | 0.00 | 74 | 1015.3 |
| 20260508025005 | 65 | 16 | 2.0 | 5.0 | 0.00 | 0.00 | 0.00 | 74 | 1015.0 |
| 20260508024503 | 65 | 21 | 2.0 | 5.0 | 0.00 | 0.00 | 0.00 | 74 | 1015.0 |
| 20260508024004 | 65 | 30 | 2.0 | 4.0 | 0.00 | 0.00 | 0.00 | 74 | 1014.9 |
| 20260508023504 | 65 | 18 | 2.0 | 5.0 | 0.00 | 0.00 | 0.00 | 74 | 1014.7 |
| 20260508023004 | 65 | 7 | 2.0 | 5.0 | 0.00 | 0.00 | 0.00 | 74 | 1014.7 |
| 20260508022503 | 65 | 11 | 1.0 | 4.0 | 0.00 | 0.00 | 0.00 | 74 | 1014.9 |
| 20260508022004 | 65 | 47 | 1.0 | 3.0 | 0.00 | 0.00 | 0.00 | 73 | 1014.9 |
| 20260508021503 | 66 | 39 | 2.0 | 5.0 | 0.00 | 0.00 | 0.00 | 73 | 1014.5 |
| 20260508021025 | 66 | 28 | 3.0 | 5.0 | 0.00 | 0.00 | 0.00 | 73 | 1014.3 |
| 20260508020503 | 66 | 22 | 2.0 | 6.0 | 0.00 | 0.00 | 0.00 | 73 | 1014.2 |
| 20260508020004 | 66 | 36 | 2.0 | 6.0 | 0.00 | 0.00 | 0.00 | 73 | 1014.3 |
| 20260508015504 | 66 | 45 | 3.0 | 7.0 | 0.00 | 0.00 | 0.00 | 73 | 1013.8 |
| 20260508015003 | 66 | 37 | 3.0 | 7.0 | 0.00 | 0.00 | 0.00 | 73 | 1014.0 |
| 20260508014504 | 66 | 40 | 2.0 | 7.0 | 0.00 | 0.00 | 0.00 | 73 | 1014.3 |
| 20260508014004 | 66 | 54 | 2.0 | 7.0 | 0.00 | 0.00 | 0.00 | 72 | 1014.0 |
| 20260508013504 | 66 | 73 | 4.0 | 11.0 | 0.00 | 0.00 | 0.00 | 73 | 1013.8 |
| 20260508013004 | 66 | 80 | 6.0 | 13.0 | 0.00 | 0.00 | 0.00 | 72 | 1013.5 |
| 20260508012503 | 66 | 82 | 7.0 | 13.0 | 0.00 | 0.00 | 0.00 | 72 | 1013.1 |
| 20260508012004 | 66 | 81 | 7.0 | 12.0 | 0.00 | 0.00 | 0.00 | 71 | 1012.9 |
| 20260508011503 | 66 | 77 | 5.0 | 11.0 | 0.00 | 0.00 | 0.00 | 71 | 1013.2 |
| 20260508011003 | 66 | 69 | 4.0 | 10.0 | 0.00 | 0.00 | 0.00 | 71 | 1013.3 |
| 20260508010504 | 66 | 74 | 6.0 | 13.0 | 0.00 | 0.00 | 0.00 | 70 | 1013.4 |
| 20260508010004 | 66 | 79 | 8.0 | 14.0 | 0.00 | 0.00 | 0.00 | 70 | 1012.8 |
| 20260508005503 | 67 | 76 | 8.0 | 15.0 | 0.00 | 0.00 | 0.00 | 69 | 1013.1 |
| 20260508005025 | 67 | 75 | 8.0 | 16.0 | 0.00 | 0.00 | 0.00 | 69 | 1013.3 |
| 20260508004504 | 67 | 76 | 7.0 | 16.0 | 0.00 | 0.00 | 0.00 | 68 | 1013.6 |
| 20260508004004 | 67 | 69 | 5.0 | 11.0 | 0.00 | 0.00 | 0.00 | 68 | 1013.9 |
| 20260508003504 | 67 | 58 | 5.0 | 12.0 | 0.00 | 0.00 | 0.00 | 67 | 1014.2 |
| 20260508003005 | 67 | 43 | 5.0 | 13.0 | 0.00 | 0.00 | 0.00 | 67 | 1014.5 |
| 20260508002504 | 68 | 46 | 5.0 | 13.0 | 0.00 | 0.00 | 0.00 | 67 | 1014.4 |
| 20260508002004 | 68 | 52 | 4.0 | 9.0 | 0.00 | 0.00 | 0.00 | 67 | 1014.7 |
| 20260508001505 | 68 | 39 | 5.0 | 12.0 | 0.00 | 0.00 | 0.00 | 67 | 1014.8 |
| 20260508001005 | 68 | 34 | 6.0 | 12.0 | 0.00 | 0.00 | 0.00 | 66 | 1015.0 |
| 20260508000504 | 68 | 35 | 5.0 | 12.0 | 0.00 | 0.00 | 0.00 | 66 | 1015.0 |
| 20260508000005 | 68 | 34 | 4.0 | 11.0 | 0.00 | 0.00 | 0.00 | 66 | 1015.3 |
| 20260507235525 | 69 | 34 | 4.0 | 10.0 | 0.00 | 0.00 | 0.00 | 66 | 1015.3 |
| 20260507235004 | 68 | 37 | 4.0 | 10.0 | 0.00 | 0.00 | 0.00 | 67 | 1015.3 |
| 20260507234505 | 68 | 38 | 4.0 | 9.0 | 0.00 | 0.00 | 0.00 | 67 | 1015.3 |
| 20260507234005 | 68 | 38 | 4.0 | 11.0 | 0.00 | 0.00 | 0.00 | 68 | 1015.3 |
| 20260507233504 | 68 | 36 | 5.0 | 11.0 | 0.00 | 0.00 | 0.00 | 67 | 1015.3 |
| 20260507233004 | 68 | 34 | 5.0 | 12.0 | 0.00 | 0.00 | 0.00 | 68 | 1015.2 |
| 20260507232525 | 68 | 32 | 5.0 | 12.0 | 0.00 | 0.00 | 0.00 | 68 | 1015.3 |
| 20260507232005 | 68 | 35 | 4.0 | 11.0 | 0.00 | 0.00 | 0.00 | 68 | 1015.2 |
| 20260507231505 | 68 | 41 | 5.0 | 10.0 | 0.00 | 0.00 | 0.00 | 68 | 1015.1 |
| 20260507231005 | 67 | 39 | 4.0 | 10.0 | 0.00 | 0.00 | 0.00 | 68 | 1015.0 |
| 20260507230504 | 67 | 39 | 4.0 | 9.0 | 0.00 | 0.00 | 0.00 | 68 | 1015.1 |
| 20260507230005 | 68 | 38 | 4.0 | 11.0 | 0.00 | 0.00 | 0.00 | 69 | 1015.2 |
| 20260507225504 | 67 | 41 | 4.0 | 11.0 | 0.00 | 0.00 | 0.00 | 69 | 1015.4 |
| 20260507225026 | 67 | 47 | 4.0 | 12.0 | 0.00 | 0.00 | 0.00 | 68 | 1015.5 |
| 20260507224505 | 68 | 42 | 4.0 | 12.0 | 0.00 | 0.00 | 0.00 | 68 | 1015.7 |
| 20260507224005 | 68 | 32 | 4.0 | 10.0 | 0.00 | 0.00 | 0.00 | 69 | 1015.5 |
| 20260507223504 | 68 | 38 | 4.0 | 10.0 | 0.00 | 0.00 | 0.00 | 68 | 1015.5 |
| 20260507223005 | 68 | 36 | 4.0 | 10.0 | 0.00 | 0.00 | 0.00 | 68 | 1015.4 |
| 20260507222505 | 68 | 18 | 4.0 | 10.0 | 0.00 | 0.00 | 0.00 | 68 | 1015.6 |
| 20260507222025 | 68 | 12 | 4.0 | 10.0 | 0.00 | 0.00 | 0.00 | 68 | 1015.9 |
| 20260507221526 | 68 | 10 | 5.0 | 12.0 | 0.00 | 0.00 | 0.00 | 69 | 1015.8 |
| 20260507221004 | 68 | 18 | 5.0 | 13.0 | 0.00 | 0.00 | 0.00 | 69 | 1015.9 |
| 20260507220504 | 68 | 25 | 4.0 | 11.0 | 0.00 | 0.00 | 0.00 | 69 | 1015.8 |
| 20260507220005 | 68 | 26 | 4.0 | 10.0 | 0.00 | 0.00 | 0.00 | 69 | 1015.7 |
| 20260507215504 | 68 | 18 | 4.0 | 10.0 | 0.00 | 0.00 | 0.00 | 69 | 1015.7 |
| 20260507215004 | 68 | 19 | 5.0 | 12.0 | 0.00 | 0.00 | 0.00 | 69 | 1015.8 |
| 20260507214504 | 68 | 29 | 7.0 | 14.0 | 0.00 | 0.00 | 0.00 | 68 | 1015.8 |
| 20260507214005 | 69 | 18 | 6.0 | 14.0 | 0.00 | 0.00 | 0.00 | 68 | 1015.6 |
| 20260507213525 | 69 | 14 | 6.0 | 19.0 | 0.00 | 0.00 | 0.00 | 67 | 1015.8 |
| 20260507213004 | 69 | 28 | 6.0 | 19.0 | 0.00 | 0.00 | 0.00 | 69 | 1015.6 |
| 20260507212504 | 69 | 30 | 6.0 | 13.0 | 0.00 | 0.00 | 0.00 | 69 | 1015.7 |
| 20260507212005 | 69 | 30 | 6.0 | 15.0 | 0.00 | 0.00 | 0.00 | 71 | 1015.3 |
| 20260507211526 | 68 | 21 | 6.0 | 15.0 | 0.00 | 0.00 | 0.00 | 70 | 1015.5 |
| 20260507211004 | 68 | 15 | 6.0 | 12.0 | 0.00 | 0.00 | 0.00 | 70 | 1015.6 |
| 20260507210504 | 68 | 16 | 6.0 | 12.0 | 0.00 | 0.00 | 0.00 | 72 | 1015.8 |
| 20260507210005 | 68 | 21 | 5.0 | 13.0 | 0.00 | 0.00 | 0.00 | 72 | 1015.7 |
| 20260507205505 | 68 | 27 | 5.0 | 13.0 | 0.00 | 0.00 | 0.00 | 72 | 1015.8 |
| 20260507205006 | 68 | 38 | 5.0 | 13.0 | 0.00 | 0.00 | 0.00 | 74 | 1015.4 |
| 20260507204505 | 68 | 46 | 6.0 | 15.0 | 0.00 | 0.00 | 0.00 | 75 | 1015.3 |
| 20260507204026 | 68 | 32 | 6.0 | 15.0 | 0.00 | 0.00 | 0.00 | 75 | 1015.4 |
| 20260507203505 | 68 | 25 | 6.0 | 14.0 | 0.00 | 0.00 | 0.00 | 74 | 1015.8 |
| 20260507203004 | 68 | 29 | 6.0 | 12.0 | 0.00 | 0.00 | 0.00 | 73 | 1016.0 |
| 20260507202504 | 68 | 26 | 6.0 | 15.0 | 0.00 | 0.00 | 0.00 | 72 | 1015.6 |
| 20260507202005 | 68 | 27 | 6.0 | 15.0 | 0.00 | 0.00 | 0.00 | 73 | 1015.5 |
| 20260507201505 | 68 | 25 | 6.0 | 12.0 | 0.00 | 0.00 | 0.00 | 72 | 1015.7 |
| 20260507201005 | 68 | 19 | 5.0 | 12.0 | 0.00 | 0.00 | 0.00 | 72 | 1015.7 |
| 20260507200525 | 68 | 19 | 6.0 | 11.0 | 0.00 | 0.00 | 0.00 | 71 | 1015.9 |
| 20260507200005 | 68 | 26 | 6.0 | 13.0 | 0.00 | 0.00 | 0.00 | 71 | 1016.0 |
| 20260507195504 | 68 | 30 | 6.0 | 13.0 | 0.00 | 0.00 | 0.00 | 73 | 1015.6 |
| 20260507195006 | 68 | 34 | 5.0 | 12.0 | 0.00 | 0.00 | 0.00 | 74 | 1015.6 |
| 20260507194525 | 67 | 40 | 6.0 | 12.0 | 0.00 | 0.00 | 0.00 | 75 | 1015.5 |
| 20260507194004 | 67 | 43 | 6.0 | 12.0 | 0.00 | 0.00 | 0.00 | 74 | 1015.2 |
| 20260507193505 | 67 | 39 | 6.0 | 13.0 | 0.00 | 0.00 | 0.00 | 74 | 1015.5 |
| 20260507193004 | 67 | 37 | 5.0 | 13.0 | 0.00 | 0.00 | 0.00 | 74 | 1015.9 |
| 20260507192504 | 67 | 41 | 5.0 | 11.0 | 0.00 | 0.00 | 0.00 | 75 | 1016.1 |
| 20260507192004 | 66 | 39 | 5.0 | 14.0 | 0.00 | 0.00 | 0.00 | 75 | 1016.5 |
| 20260507191505 | 66 | 47 | 5.0 | 14.0 | 0.00 | 0.00 | 0.00 | 75 | 1016.3 |
| 20260507191004 | 66 | 46 | 6.0 | 13.0 | 0.00 | 0.00 | 0.00 | 76 | 1016.3 |
| 20260507190504 | 66 | 38 | 6.0 | 13.0 | 0.00 | 0.00 | 0.00 | 75 | 1016.4 |
| 20260507190025 | 66 | 39 | 5.0 | 13.0 | 0.00 | 0.00 | 0.00 | 75 | 1016.4 |
| 20260507185504 | 66 | 35 | 4.0 | 9.0 | 0.00 | 0.00 | 0.00 | 76 | 1016.7 |
| 20260507185004 | 66 | 33 | 4.0 | 11.0 | 0.00 | 0.00 | 0.00 | 77 | 1017.0 |
| 20260507184504 | 66 | 24 | 4.0 | 11.0 | 0.00 | 0.00 | 0.00 | 77 | 1017.2 |
| 20260507184004 | 66 | 12 | 4.0 | 10.0 | 0.00 | 0.00 | 0.00 | 76 | 1017.6 |
| 20260507183505 | 66 | 14 | 3.0 | 7.0 | 0.00 | 0.00 | 0.00 | 76 | 1017.7 |
| 20260507183004 | 66 | 33 | 4.0 | 11.0 | 0.00 | 0.00 | 0.00 | 76 | 1017.5 |
| 20260507182504 | 66 | 39 | 5.0 | 11.0 | 0.00 | 0.00 | 0.00 | 76 | 1017.3 |
| 20260507182025 | 66 | 36 | 5.0 | 11.0 | 0.00 | 0.00 | 0.00 | 76 | 1017.2 |
| 20260507181504 | 66 | 53 | 6.0 | 13.0 | 0.00 | 0.00 | 0.00 | 77 | 1017.1 |
| 20260507181005 | 66 | 63 | 6.0 | 13.0 | 0.00 | 0.00 | 0.00 | 77 | 1017.0 |
| 20260507180504 | 66 | 50 | 5.0 | 12.0 | 0.00 | 0.00 | 0.00 | 77 | 1016.9 |
| 20260507180004 | 66 | 43 | 5.0 | 12.0 | 0.00 | 0.00 | 0.00 | 77 | 1016.9 |
| 20260507175506 | 65 | 53 | 5.0 | 14.0 | 0.00 | 0.00 | 0.00 | 78 | 1017.1 |
| 20260507175025 | 65 | 51 | 5.0 | 14.0 | 0.00 | 0.00 | 0.00 | 79 | 1017.1 |
| 20260507174504 | 65 | 47 | 4.0 | 13.0 | 0.00 | 0.00 | 0.00 | 80 | 1017.1 |
| 20260507174004 | 64 | 40 | 4.0 | 12.0 | 0.00 | 0.00 | 0.00 | 80 | 1017.2 |
| 20260507173504 | 64 | 40 | 6.0 | 12.0 | 0.00 | 0.00 | 0.00 | 79 | 1017.5 |
| 20260507173005 | 64 | 41 | 5.0 | 12.0 | 0.00 | 0.00 | 0.00 | 79 | 1017.8 |
| 20260507172504 | 64 | 32 | 5.0 | 13.0 | 0.00 | 0.00 | 0.00 | 79 | 1017.8 |
| 20260507172004 | 64 | 32 | 6.0 | 13.0 | 0.00 | 0.00 | 0.00 | 80 | 1017.6 |
| 20260507171504 | 64 | 34 | 7.0 | 14.0 | 0.00 | 0.00 | 0.00 | 80 | 1017.8 |
| 20260507171004 | 64 | 35 | 6.0 | 14.0 | 0.00 | 0.00 | 0.00 | 79 | 1017.9 |
| 20260507170526 | 64 | 36 | 6.0 | 11.0 | 0.00 | 0.00 | 0.00 | 80 | 1018.0 |
| 20260507170005 | 64 | 36 | 6.0 | 13.0 | 0.00 | 0.00 | 0.00 | 80 | 1017.9 |
| 20260507165504 | 64 | 33 | 6.0 | 13.0 | 0.00 | 0.00 | 0.00 | 80 | 1017.8 |
| 20260507165004 | 63 | 32 | 6.0 | 11.0 | 0.00 | 0.00 | 0.00 | 81 | 1017.9 |
| 20260507164504 | 63 | 33 | 6.0 | 14.0 | 0.00 | 0.00 | 0.00 | 82 | 1017.9 |
| 20260507164004 | 63 | 28 | 6.0 | 14.0 | 0.00 | 0.00 | 0.00 | 82 | 1017.8 |
| 20260507163504 | 63 | 29 | 6.0 | 13.0 | 0.00 | 0.00 | 0.00 | 82 | 1017.8 |
| 20260507163025 | 63 | 31 | 5.0 | 13.0 | 0.00 | 0.00 | 0.00 | 82 | 1017.9 |
| 20260507162504 | 62 | 31 | 6.0 | 16.0 | 0.00 | 0.00 | 0.00 | 83 | 1017.7 |
| 20260507162004 | 62 | 34 | 6.0 | 16.0 | 0.00 | 0.00 | 0.00 | 83 | 1017.8 |
| 20260507161504 | 62 | 32 | 6.0 | 12.0 | 0.00 | 0.00 | 0.00 | 83 | 1017.8 |
| 20260507161005 | 62 | 31 | 6.0 | 12.0 | 0.00 | 0.00 | 0.00 | 83 | 1017.7 |
| 20260507160504 | 62 | 33 | 6.0 | 14.0 | 0.00 | 0.00 | 0.00 | 83 | 1017.6 |
| 20260507160006 | 62 | 26 | 7.0 | 15.0 | 0.00 | 0.00 | 0.00 | 83 | 1017.7 |
| 20260507155504 | 62 | 20 | 7.0 | 15.0 | 0.00 | 0.00 | 0.00 | 83 | 1017.6 |
| 20260507155005 | 62 | 27 | 6.0 | 14.0 | 0.00 | 0.00 | 0.00 | 84 | 1017.6 |
| 20260507154504 | 62 | 28 | 7.0 | 14.0 | 0.00 | 0.00 | 0.00 | 84 | 1017.5 |
| 20260507154004 | 62 | 29 | 6.0 | 11.0 | 0.00 | 0.00 | 0.00 | 84 | 1017.7 |
| 20260507153504 | 62 | 32 | 6.0 | 11.0 | 0.00 | 0.00 | 0.00 | 85 | 1017.6 |
| 20260507153004 | 62 | 31 | 6.0 | 14.0 | 0.00 | 0.00 | 0.00 | 85 | 1017.6 |
| 20260507152504 | 62 | 24 | 7.0 | 16.0 | 0.00 | 0.00 | 0.00 | 84 | 1017.7 |
| 20260507152004 | 61 | 24 | 7.0 | 16.0 | 0.00 | 0.00 | 0.00 | 84 | 1017.7 |
| 20260507151526 | 62 | 30 | 7.0 | 13.0 | 0.00 | 0.00 | 0.00 | 85 | 1017.7 |
| 20260507151004 | 62 | 31 | 6.0 | 13.0 | 0.00 | 0.00 | 0.00 | 85 | 1017.1 |
| 20260507150525 | 61 | 27 | 5.0 | 11.0 | 0.00 | 0.00 | 0.00 | 86 | 1017.1 |
| 20260507150005 | 61 | 21 | 5.0 | 12.0 | 0.00 | 0.00 | 0.00 | 85 | 1017.3 |
| 20260507145504 | 61 | 18 | 5.0 | 14.0 | 0.00 | 0.00 | 0.00 | 85 | 1017.4 |
| 20260507145005 | 61 | 14 | 4.0 | 14.0 | 0.00 | 0.00 | 0.00 | 84 | 1017.5 |
| 20260507144505 | 62 | 13 | 6.0 | 16.0 | 0.00 | 0.00 | 0.00 | 85 | 1017.3 |
| 20260507144025 | 62 | 11 | 6.0 | 19.0 | 0.00 | 0.00 | 0.00 | 84 | 1017.3 |
| 20260507143504 | 62 | 10 | 7.0 | 19.0 | 0.00 | 0.00 | 0.00 | 84 | 1017.4 |
| 20260507143025 | 62 | 14 | 6.0 | 15.0 | 0.00 | 0.00 | 0.00 | 84 | 1017.2 |
| 20260507142504 | 62 | 21 | 5.0 | 13.0 | 0.00 | 0.00 | 0.00 | 85 | 1017.0 |
| 20260507142004 | 61 | 17 | 5.0 | 13.0 | 0.00 | 0.00 | 0.00 | 85 | 1016.9 |
| 20260507141504 | 61 | 10 | 5.0 | 12.0 | 0.00 | 0.00 | 0.00 | 86 | 1017.1 |
| 20260507141004 | 61 | 16 | 6.0 | 13.0 | 0.00 | 0.00 | 0.00 | 85 | 1017.1 |
| 20260507140504 | 61 | 17 | 5.0 | 13.0 | 0.00 | 0.00 | 0.00 | 85 | 1017.3 |
| 20260507140004 | 61 | 13 | 4.0 | 10.0 | 0.00 | 0.00 | 0.00 | 86 | 1017.6 |
| 20260507135504 | 61 | 13 | 4.0 | 10.0 | 0.00 | 0.00 | 0.00 | 86 | 1017.3 |
| 20260507135004 | 61 | 12 | 4.0 | 10.0 | 0.00 | 0.00 | 0.00 | 86 | 1017.3 |
| 20260507134505 | 61 | 15 | 5.0 | 13.0 | 0.00 | 0.00 | 0.00 | 86 | 1017.5 |
| 20260507134004 | 61 | 18 | 5.0 | 13.0 | 0.00 | 0.00 | 0.00 | 86 | 1017.3 |
| 20260507133504 | 61 | 19 | 5.0 | 12.0 | 0.00 | 0.00 | 0.00 | 86 | 1017.4 |
| 20260507133004 | 60 | 17 | 5.0 | 13.0 | 0.00 | 0.00 | 0.00 | 87 | 1017.2 |
| 20260507132504 | 60 | 15 | 5.0 | 13.0 | 0.00 | 0.00 | 0.00 | 86 | 1017.0 |
| 20260507132005 | 60 | 15 | 4.0 | 13.0 | 0.00 | 0.00 | 0.00 | 87 | 1017.0 |
| 20260507131504 | 60 | 15 | 5.0 | 14.0 | 0.00 | 0.00 | 0.00 | 87 | 1016.9 |
| 20260507131004 | 60 | 18 | 5.0 | 15.0 | 0.00 | 0.00 | 0.00 | 87 | 1017.1 |
| 20260507130511 | 60 | 21 | 5.0 | 15.0 | 0.00 | 0.00 | 0.00 | 87 | 1016.9 |
| 20260507130005 | 60 | 13 | 5.0 | 11.0 | 0.00 | 0.00 | 0.00 | 87 | 1016.9 |
| 20260507125504 | 60 | 14 | 5.0 | 12.0 | 0.00 | 0.00 | 0.00 | 86 | 1017.1 |
| 20260507125025 | 61 | 27 | 5.0 | 12.0 | 0.00 | 0.00 | 0.00 | 86 | 1016.9 |
| 20260507124504 | 61 | 27 | 5.0 | 12.0 | 0.00 | 0.00 | 0.00 | 86 | 1016.9 |
| 20260507124026 | 61 | 23 | 5.0 | 12.0 | 0.00 | 0.00 | 0.00 | 85 | 1016.9 |
| 20260507123504 | 61 | 30 | 4.0 | 12.0 | 0.00 | 0.00 | 0.00 | 85 | 1017.1 |
| 20260507123004 | 61 | 35 | 4.0 | 12.0 | 0.00 | 0.00 | 0.00 | 84 | 1017.0 |
| 20260507122505 | 62 | 36 | 5.0 | 11.0 | 0.00 | 0.00 | 0.00 | 84 | 1016.9 |
| 20260507122005 | 62 | 33 | 5.0 | 13.0 | 0.00 | 0.00 | 0.00 | 83 | 1016.7 |
| 20260507121504 | 62 | 30 | 6.0 | 13.0 | 0.00 | 0.00 | 0.00 | 83 | 1016.7 |
| 20260507121005 | 62 | 28 | 5.0 | 15.0 | 0.00 | 0.00 | 0.00 | 83 | 1016.5 |
| 20260507120504 | 62 | 29 | 6.0 | 15.0 | 0.00 | 0.00 | 0.00 | 82 | 1016.5 |
| 20260507120005 | 62 | 24 | 7.0 | 15.0 | 0.00 | 0.00 | 0.00 | 82 | 1016.2 |
| 20260507115504 | 62 | 20 | 6.0 | 15.0 | 0.00 | 0.00 | 0.00 | 82 | 1015.8 |
| 20260507115025 | 62 | 22 | 5.0 | 12.0 | 0.00 | 0.00 | 0.00 | 81 | 1015.8 |
| 20260507114504 | 62 | 26 | 5.0 | 13.0 | 0.00 | 0.00 | 0.00 | 81 | 1015.8 |
| 20260507114004 | 62 | 29 | 5.0 | 13.0 | 0.00 | 0.00 | 0.00 | 81 | 1015.5 |
| 20260507113504 | 63 | 25 | 5.0 | 12.0 | 0.00 | 0.00 | 0.00 | 81 | 1015.4 |
| 20260507113025 | 63 | 29 | 5.0 | 12.0 | 0.00 | 0.00 | 0.00 | 81 | 1015.4 |
| 20260507112505 | 63 | 27 | 5.0 | 12.0 | 0.00 | 0.00 | 0.00 | 81 | 1015.6 |
| 20260507112004 | 63 | 21 | 5.0 | 12.0 | 0.00 | 0.00 | 0.00 | 81 | 1015.4 |
| 20260507111506 | 63 | 16 | 4.0 | 13.0 | 0.00 | 0.00 | 0.00 | 81 | 1015.3 |
| 20260507111004 | 63 | 14 | 5.0 | 13.0 | 0.00 | 0.00 | 0.00 | 81 | 1015.3 |
| 20260507110525 | 63 | 15 | 5.0 | 14.0 | 0.00 | 0.00 | 0.00 | 81 | 1015.3 |
| 20260507110005 | 63 | 17 | 5.0 | 14.0 | 0.00 | 0.00 | 0.00 | 80 | 1015.2 |
| 20260507105504 | 63 | 19 | 4.0 | 11.0 | 0.00 | 0.00 | 0.00 | 81 | 1015.0 |
| 20260507105004 | 63 | 27 | 4.0 | 11.0 | 0.00 | 0.00 | 0.00 | 81 | 1015.1 |
| 20260507104504 | 63 | 29 | 5.0 | 11.0 | 0.00 | 0.00 | 0.00 | 81 | 1015.0 |
| 20260507104005 | 63 | 30 | 5.0 | 11.0 | 0.00 | 0.00 | 0.00 | 81 | 1014.9 |
| 20260507103504 | 63 | 30 | 4.0 | 10.0 | 0.00 | 0.00 | 0.00 | 81 | 1015.1 |
| 20260507103004 | 63 | 28 | 4.0 | 9.0 | 0.00 | 0.00 | 0.00 | 81 | 1015.0 |
| 20260507102504 | 63 | 28 | 4.0 | 11.0 | 0.00 | 0.00 | 0.00 | 81 | 1015.0 |
| 20260507102006 | 63 | 31 | 5.0 | 11.0 | 0.00 | 0.00 | 0.00 | 81 | 1014.9 |
| 20260507101504 | 63 | 34 | 5.0 | 12.0 | 0.00 | 0.00 | 0.00 | 81 | 1014.9 |
| 20260507101005 | 63 | 36 | 4.0 | 13.0 | 0.00 | 0.00 | 0.00 | 81 | 1014.9 |
| 20260507100504 | 63 | 31 | 4.0 | 13.0 | 0.00 | 0.00 | 0.00 | 81 | 1015.0 |
| 20260507100005 | 63 | 26 | 5.0 | 12.0 | 0.00 | 0.00 | 0.00 | 81 | 1014.6 |
| 20260507095504 | 63 | 28 | 5.0 | 12.0 | 0.00 | 0.00 | 0.00 | 81 | 1014.4 |
| 20260507095025 | 63 | 27 | 4.0 | 11.0 | 0.00 | 0.00 | 0.00 | 81 | 1014.5 |
| 20260507094525 | 63 | 25 | 4.0 | 10.0 | 0.00 | 0.00 | 0.00 | 81 | 1014.8 |
| 20260507094004 | 63 | 26 | 4.0 | 10.0 | 0.00 | 0.00 | 0.00 | 81 | 1014.7 |
| 20260507093504 | 63 | 27 | 4.0 | 9.0 | 0.00 | 0.00 | 0.00 | 81 | 1014.6 |
| 20260507093004 | 63 | 30 | 3.0 | 10.0 | 0.00 | 0.00 | 0.00 | 81 | 1014.9 |
| 20260507092505 | 63 | 31 | 4.0 | 10.0 | 0.00 | 0.00 | 0.00 | 81 | 1015.0 |
| 20260507092024 | 63 | 31 | 4.0 | 10.0 | 0.00 | 0.00 | 0.00 | 81 | 1015.2 |
| 20260507091504 | 63 | 29 | 3.0 | 10.0 | 0.00 | 0.00 | 0.00 | 81 | 1015.2 |